AE7MK-13 Weather Reports


Display with metric or nautical units.
time (UTC)temp
F
wind
direction
speed
MPH
gust
MPH
rain 1hr
in
rain 24hr
in
rain mn
in
humidity
%
barometer
mb
20260509055214 47 282 11.0 17.0 0.00 0.00 0.00 50 1018.9
20260509054003 48 295 11.0 16.0 0.00 0.00 0.00 48 1019.0
20260509053213 48 300 12.0 18.0 0.00 0.00 0.00 47 1018.9
20260509052003 48 296 14.0 22.0 0.00 0.00 0.00 46 1018.7
20260509051003 49 294 16.0 26.0 0.00 0.00 0.00 45 1018.4
20260509050213 49 289 17.0 24.0 0.00 0.00 0.00 45 1018.2
20260509045003 49 293 18.0 27.0 0.00 0.00 0.00 44 1018.3
20260509044003 50 287 19.0 26.0 0.00 0.00 0.00 43 1018.2
20260509043003 50 290 18.0 27.0 0.00 0.00 0.00 42 1018.3
20260509042003 50 284 19.0 32.0 0.00 0.00 0.00 41 1018.2
20260509041213 51 282 18.0 32.0 0.00 0.00 0.00 40 1018.1
20260509040003 52 281 22.0 33.0 0.00 0.00 0.00 37 1017.7
20260509035003 52 278 23.0 35.0 0.00 0.00 0.00 37 1017.2
20260509034003 52 275 23.0 37.0 0.00 0.00 0.00 35 1017.1
20260509033003 51 264 24.0 32.0 0.00 0.00 0.00 35 1016.9
20260509032003 52 269 23.0 30.0 0.00 0.00 0.00 33 1016.9
20260509031003 52 269 20.0 32.0 0.00 0.00 0.00 34 1017.1
20260509030004 53 277 19.0 26.0 0.00 0.00 0.00 33 1017.3
20260509025003 53 278 19.0 28.0 0.00 0.00 0.00 33 1017.3
20260509024003 54 279 17.0 26.0 0.00 0.00 0.00 32 1017.3
20260509023003 54 293 16.0 24.0 0.00 0.00 0.00 32 1017.5
20260509022003 55 296 15.0 22.0 0.00 0.00 0.00 32 1017.4
20260509021003 55 293 17.0 26.0 0.00 0.00 0.00 31 1017.5
20260509020214 56 292 15.0 26.0 0.00 0.00 0.00 30 1017.3
20260509015003 56 284 15.0 25.0 0.00 0.00 0.00 29 1017.3
20260509014214 56 279 15.0 25.0 0.00 0.00 0.00 29 1017.3
20260509013003 57 284 14.0 22.0 0.00 0.00 0.00 27 1017.0
20260509012003 57 276 14.0 23.0 0.00 0.00 0.00 28 1017.0
20260509011003 57 274 15.0 24.0 0.00 0.00 0.00 27 1016.9
20260509010214 57 274 16.0 25.0 0.00 0.00 0.00 27 1016.9
20260509005003 57 295 18.0 28.0 0.00 0.00 0.00 27 1017.0
20260509004003 58 302 13.0 26.0 0.00 0.00 0.00 26 1017.1
20260509003214 58 304 16.0 24.0 0.00 0.00 0.00 28 1017.1
20260509002003 58 304 15.0 25.0 0.00 0.00 0.00 27 1016.8
20260509001003 58 302 13.0 21.0 0.00 0.00 0.00 27 1016.6
20260509000214 58 303 12.0 19.0 0.00 0.00 0.00 26 1016.7
20260508235003 57 298 15.0 23.0 0.00 0.00 0.00 26 1016.7
20260508234213 57 291 15.0 23.0 0.00 0.00 0.00 25 1016.7
20260508233003 57 296 18.0 28.0 0.00 0.00 0.00 22 1016.5
20260508232003 57 299 16.0 24.0 0.00 0.00 0.00 23 1016.6
20260508231003 57 288 14.0 25.0 0.00 0.00 0.00 21 1016.6
20260508230005 58 287 16.0 23.0 0.00 0.00 0.00 22 1016.5
20260508225213 58 282 17.0 26.0 0.00 0.00 0.00 21 1016.3
20260508224003 58 292 15.0 21.0 0.00 0.00 0.00 22 1016.2
20260508223003 57 289 16.0 23.0 0.00 0.00 0.00 20 1016.1
20260508222003 59 285 18.0 27.0 0.00 0.00 0.00 18 1016.2
20260508221003 60 277 19.0 26.0 0.00 0.00 0.00 16 1016.0
20260508220213 60 275 15.0 26.0 0.00 0.00 0.00 17 1016.1
20260508215003 59 295 13.0 20.0 0.00 0.00 0.00 20 1016.0
20260508214212 60 292 12.0 20.0 0.00 0.00 0.00 20 1015.9
20260508213004 59 291 11.0 16.0 0.00 0.00 0.00 21 1015.8
20260508212003 60 298 11.0 19.0 0.00 0.00 0.00 19 1015.8
20260508211003 60 303 11.0 20.0 0.00 0.00 0.00 21 1015.8
20260508210003 59 290 11.0 16.0 0.00 0.00 0.00 18 1015.7
20260508205212 60 298 13.0 19.0 0.00 0.00 0.00 20 1015.6
20260508204003 60 296 13.0 21.0 0.00 0.00 0.00 21 1015.6
20260508203003 60 299 12.0 21.0 0.00 0.00 0.00 21 1015.6
20260508202003 60 296 11.0 20.0 0.00 0.00 0.00 22 1015.7
20260508201003 59 298 11.0 15.0 0.00 0.00 0.00 24 1015.6
20260508200214 59 284 9.0 13.0 0.00 0.00 0.00 25 1015.6
20260508195004 58 275 12.0 19.0 0.00 0.00 0.00 26 1015.4
20260508194214 58 266 12.0 19.0 0.00 0.00 0.00 24 1015.4
20260508193003 59 276 10.0 17.0 0.00 0.00 0.00 24 1015.0
20260508192003 59 256 10.0 17.0 0.00 0.00 0.00 25 1015.2
20260508191003 58 253 10.0 17.0 0.00 0.00 0.00 28 1015.0
20260508190003 58 261 11.0 16.0 0.00 0.00 0.00 26 1015.1
20260508185213 58 272 11.0 18.0 0.00 0.00 0.00 25 1015.1
20260508184003 60 266 11.0 19.0 0.00 0.00 0.00 25 1015.2
20260508183213 60 261 9.0 19.0 0.00 0.00 0.00 23 1015.2
20260508182003 58 266 10.0 17.0 0.00 0.00 0.00 21 1015.3
20260508181003 57 243 13.0 19.0 0.00 0.00 0.00 22 1015.2
20260508180005 57 242 11.0 18.0 0.00 0.00 0.00 24 1015.2
20260508175003 57 265 8.0 13.0 0.00 0.00 0.00 23 1015.2
20260508174003 57 274 9.0 13.0 0.00 0.00 0.00 22 1015.1
20260508173003 55 274 9.0 15.0 0.00 0.00 0.00 26 1015.1
20260508172003 54 250 11.0 14.0 0.00 0.00 0.00 25 1014.9
20260508171003 54 243 11.0 15.0 0.00 0.00 0.00 22 1014.9
20260508170003 54 236 10.0 14.0 0.00 0.00 0.00 21 1015.0
20260508165004 54 244 8.0 13.0 0.00 0.00 0.00 19 1014.9
20260508164003 54 254 5.0 9.0 0.00 0.00 0.00 19 1014.9
20260508163003 54 251 8.0 12.0 0.00 0.00 0.00 18 1014.8
20260508162003 54 243 9.0 13.0 0.00 0.00 0.00 19 1014.8
20260508161212 54 233 8.0 12.0 0.00 0.00 0.00 18 1014.8
20260508160004 55 251 3.0 6.0 0.00 0.00 0.00 19 1014.5
20260508155003 54 248 5.0 8.0 0.00 0.00 0.00 18 1014.6
20260508154003 54 243 6.0 9.0 0.00 0.00 0.00 17 1014.5
20260508153003 54 253 5.0 8.0 0.00 0.00 0.00 19 1014.6
20260508152003 54 257 4.0 8.0 0.00 0.00 0.00 21 1014.5
20260508151003 54 264 2.0 6.0 0.00 0.00 0.00 27 1014.5
20260508150004 54 269 0.0 5.0 0.00 0.00 0.00 26 1014.4
20260508145003 54 271 2.0 4.0 0.00 0.00 0.00 25 1014.4
20260508144003 54 264 1.0 5.0 0.00 0.00 0.00 25 1014.4
20260508143003 54 299 2.0 6.0 0.00 0.00 0.00 28 1014.4
20260508142214 54 309 1.0 4.0 0.00 0.00 0.00 23 1014.2
20260508141003 54 0 0.0 0.0 0.00 0.00 0.00 28 1014.2
20260508140003 54 308 0.0 4.0 0.00 0.00 0.00 25 1014.2
20260508135003 54 309 5.0 10.0 0.00 0.00 0.00 21 1014.3
20260508134003 54 309 5.0 9.0 0.00 0.00 0.00 19 1014.1
20260508133003 54 307 6.0 9.0 0.00 0.00 0.00 19 1014.0
20260508132003 54 311 3.0 9.0 0.00 0.00 0.00 21 1013.8
20260508131003 53 318 2.0 8.0 0.00 0.00 0.00 23 1013.7
20260508130003 51 337 0.0 3.0 0.00 0.00 0.00 34 1013.8
20260508125213 51 0 0.0 0.0 0.00 0.00 0.00 39 1014.0
20260508124213 51 338 2.0 4.0 0.00 0.00 0.00 36 1014.0
20260508123003 51 324 3.0 4.0 0.00 0.00 0.00 36 1014.0
20260508122003 50 321 3.0 5.0 0.00 0.00 0.00 37 1014.0
20260508121003 49 339 4.0 4.0 0.00 0.00 0.00 41 1014.1
20260508120004 49 339 3.0 4.0 0.00 0.00 0.00 40 1014.2
20260508115003 49 336 3.0 5.0 0.00 0.00 0.00 40 1014.3
20260508114003 49 334 4.0 5.0 0.00 0.00 0.00 41 1014.2
20260508113003 50 330 1.0 5.0 0.00 0.00 0.00 38 1014.1
20260508112213 51 330 1.0 4.0 0.00 0.00 0.00 36 1014.2
20260508111003 50 330 3.0 4.0 0.00 0.00 0.00 39 1014.2
20260508110003 49 330 3.0 5.0 0.00 0.00 0.00 40 1014.2
20260508105003 50 329 2.0 4.0 0.00 0.00 0.00 40 1014.2
20260508104003 52 0 0.0 0.0 0.00 0.00 0.00 36 1014.1
20260508103004 52 329 2.0 4.0 0.00 0.00 0.00 36 1014.1
20260508102003 52 325 2.0 4.0 0.00 0.00 0.00 36 1014.1
20260508101003 52 311 2.0 5.0 0.00 0.00 0.00 37 1014.1
20260508100004 53 300 4.0 5.0 0.00 0.00 0.00 35 1014.1
20260508095003 53 293 3.0 6.0 0.00 0.00 0.00 36 1014.2
20260508094003 54 288 5.0 6.0 0.00 0.00 0.00 33 1014.2
20260508093003 55 286 4.0 6.0 0.00 0.00 0.00 32 1014.3
20260508092003 54 286 4.0 6.0 0.00 0.00 0.00 33 1014.3
20260508091003 54 290 4.0 6.0 0.00 0.00 0.00 35 1014.4
20260508090003 54 291 4.0 7.0 0.00 0.00 0.00 35 1014.4
20260508085003 52 316 3.0 6.0 0.00 0.00 0.00 39 1014.4
20260508084214 52 319 3.0 6.0 0.00 0.00 0.00 39 1014.4
20260508083003 54 299 4.0 6.0 0.00 0.00 0.00 36 1014.6
20260508082214 54 294 4.0 6.0 0.00 0.00 0.00 35 1014.5
20260508081004 55 287 5.0 7.0 0.00 0.00 0.00 35 1014.6
20260508080004 55 286 5.0 7.0 0.00 0.00 0.00 35 1014.7
20260508075003 54 289 4.0 6.0 0.00 0.00 0.00 36 1014.7
20260508074003 53 301 3.0 5.0 0.00 0.00 0.00 39 1014.8
20260508073213 53 299 3.0 5.0 0.00 0.00 0.00 40 1014.8
20260508072213 54 298 3.0 5.0 0.00 0.00 0.00 39 1014.8
20260508071003 54 308 3.0 5.0 0.00 0.00 0.00 39 1014.9
20260508070003 54 298 2.0 4.0 0.00 0.00 0.00 40 1014.9
20260508065003 55 288 4.0 6.0 0.00 0.00 0.00 40 1014.9
20260508064213 55 284 5.0 7.0 0.00 0.00 0.00 42 1014.9
20260508063003 55 286 5.0 7.0 0.00 0.00 0.00 43 1015.1
20260508062003 55 285 5.0 7.0 0.00 0.00 0.00 44 1015.1
20260508061003 52 307 3.0 6.0 0.00 0.00 0.00 51 1015.1
20260508060003 52 323 3.0 4.0 0.00 0.00 0.00 57 1015.2